Powrót do katalogu

CZ-3B R/B

AktywnyHEO
NORAD 62375·ROCKET BODY·🇨🇳 China

Wystrzelony Dec 20, 2024 z Xichang Satellite Launch Center

Loading…

Następne Przeloty (najbliższe 24 godziny)

TLE

ŚwieżeSource: Space-Track

Epoka: Sep 13, 2026, 10:36 UTC

1 62375U 24246B   26256.44234089  .00412993  80028-6  14199-2 0  9994
2 62375  28.0158 280.8323 5671599 103.6767 322.5006  4.68702139 21468

Śledź CZ-3B R/B w czasie rzeczywistym z AllMySat

Download on the App Store